CST,Max TemperatureF,Mean TemperatureF,Min TemperatureF,Max Dew PointF,MeanDew PointF,Min DewpointF,Max Humidity, Mean Humidity, Min Humidity, Max Sea Level PressureIn, Mean Sea Level PressureIn, Min Sea Level PressureIn, Max VisibilityMiles, Mean VisibilityMiles, Min VisibilityMiles, Max Wind SpeedMPH, Mean Wind SpeedMPH, Max Gust SpeedMPH,PrecipitationIn, CloudCover, Events, WindDirDegrees
2014-1-1,-2,-6,-9,-12,-15,-18,79,65,56,30.56,30.52,30.47,10,10,10,10,6,,0.00,8,,58
2014-1-2,-2,-10,-18,-11,-16,-24,86,77,68,30.59,30.52,30.35,10,10,9,13,3,,0.00,0,,233
2014-1-3,30,10,-8,26,8,-14,93,82,69,30.28,29.64,29.32,10,4,0,25,18,33,0.00,8,Fog-Snow,176
2014-1-4,32,12,-11,28,1,-15,92,76,60,30.36,29.91,29.35,10,8,2,26,19,37,0.00,4,Snow,322
2014-1-5,-11,-17,-24,-18,-25,-31,78,69,58,30.51,30.42,30.28,10,9,2,21,13,28,0.00,3,,307
2014-1-6,-14,-20,-25,-19,-29,-33,79,69,63,30.44,30.34,30.17,10,9,3,20,14,25,0.00,4,,292
2014-1-7,0,-8,-16,-9,-14,-21,86,73,66,30.36,30.24,30.17,10,10,10,14,7,,0.00,3,,277
2014-1-8,-2,-12,-22,-8,-16,-27,87,76,63,30.54,30.47,30.35,10,10,10,12,4,,0.00,1,,218
2014-1-9,19,10,1,15,8,-5,88,79,73,30.35,30.04,29.81,10,10,7,23,16,32,0.00,4,,166
2014-1-10,28,23,18,28,24,15,100,96,88,29.78,29.58,29.46,6,2,0,17,12,23,0.00,7,Fog,188
2014-1-11,27,22,18,24,20,15,96,90,81,29.70,29.60,29.47,10,8,2,20,11,26,0.00,5,,276
2014-1-12,39,32,25,31,26,20,85,76,69,29.56,29.43,29.33,10,10,10,15,11,,0.00,3,,246
2014-1-13,30,24,17,25,17,10,93,81,71,29.71,29.60,29.48,10,8,1,22,13,29,0.01,5,Snow,319
2014-1-14,23,16,8,20,12,-3,93,82,61,30.25,29.84,29.47,10,4,1,23,12,29,0.04,7,Snow,340
2014-1-15,35,14,-6,31,5,-10,92,83,67,30.22,29.82,29.35,10,6,0,26,11,38,0.00,6,Fog-Snow,223
2014-1-16,33,16,-2,32,11,-6,96,80,66,30.08,29.62,29.33,10,3,0,32,22,45,0.00,8,Snow,322
2014-1-17,12,2,-9,10,-1,-16,92,76,59,30.17,29.96,29.57,10,8,1,15,9,22,0.01,3,Snow,224
2014-1-18,23,14,10,19,10,6,92,86,71,30.02,29.67,29.43,10,6,0,17,14,23,0.05,5,Fog-Snow,124
2014-1-19,30,26,23,27,23,20,88,83,72,29.76,29.62,29.50,10,10,10,16,12,25,0.00,4,,288
2014-1-20,26,4,-18,22,4,-25,93,78,55,30.60,30.04,29.70,10,6,1,20,13,25,0.00,7,Snow,358
2014-1-21,3,-11,-25,1,-12,-30,88,77,65,30.59,30.21,29.94,10,5,1,14,8,,0.00,6,Snow,185
2014-1-22,5,-6,-16,0,-13,-23,85,72,65,30.67,30.23,29.94,10,6,1,28,17,37,0.00,3,Snow,330
2014-1-23,8,-8,-22,-2,-17,-27,78,74,64,30.83,30.62,30.07,10,10,10,23,10,29,0.00,1,,266
2014-1-24,33,22,10,30,20,-1,93,81,61,29.99,29.65,29.47,10,6,0,25,17,37,0.00,8,Fog-Snow,288
2014-1-25,9,4,-2,1,-5,-12,85,72,50,30.04,29.72,29.38,10,6,1,25,15,34,0.04,4,Snow,116
2014-1-26,12,0,-14,7,-5,-22,92,75,64,30.25,29.66,29.35,10,3,0,37,18,50,0.03,7,Snow,325
2014-1-27,-13,-16,-20,-19,-23,-27,75,69,64,30.52,30.42,30.13,10,10,7,22,16,29,0.00,1,,302
2014-1-28,-4,-11,-18,-12,-18,-23,81,71,62,30.44,30.31,30.13,10,10,10,17,12,,0.00,0,,277
2014-1-29,26,8,-9,14,1,-16,80,69,54,30.11,29.79,29.61,10,10,6,21,12,28,0.00,0,,235
2014-1-30,15,3,-9,9,1,-16,85,79,63,30.12,29.72,29.49,10,6,1,22,11,29,0.00,5,Snow,352
2014-1-31,8,-3,-14,3,-8,-19,84,76,66,30.16,30.08,29.96,10,10,10,14,8,,0.00,1,,226